This is the latest recevied weather packets stored in our database for station/object KD2RHT-13. If no packets are shown the sender has not sent any weather packets the latest 1 day(s).
| Time | Temp. | Humidity | Pressure | Rain* | Wind** | Luminosity | Snow |
|---|---|---|---|---|---|---|---|
| 1777968986 | 17.78° C | 75% | 1005.3 hPa | 0 mm | 1.79 m/s, 222° | 0 W/m² | - |
| 1777968697 | 18.33° C | 71% | 1005.3 hPa | 0 mm | 1.79 m/s, 189° | 0 W/m² | - |
| 1777968381 | 18.33° C | 69% | 1005.3 hPa | 0 mm | 0.89 m/s, 217° | 0 W/m² | - |
| 1777968077 | 18.89° C | 66% | 1005.3 hPa | 0 mm | 0.89 m/s, 223° | 0 W/m² | - |
| 1777967773 | 18.89° C | 66% | 1005.3 hPa | 0 mm | 1.34 m/s, 169° | 0 W/m² | - |
| 1777967470 | 18.89° C | 65% | 1005.3 hPa | 0 mm | 1.34 m/s, 123° | 0 W/m² | - |
| 1777967167 | 18.89° C | 66% | 1005 hPa | 0 mm | 2.24 m/s, 266° | 0 W/m² | - |
| 1777966864 | 18.33° C | 67% | 1005.3 hPa | 0 mm | 0.45 m/s, 137° | 0 W/m² | - |
| 1777966561 | 18.33° C | 69% | 1005.3 hPa | 0 mm | 0.89 m/s, 191° | 0 W/m² | - |
| 1777966260 | 17.78° C | 69% | 1005.3 hPa | 0 mm | 0.45 m/s, 189° | 0 W/m² | - |
| 1777965955 | 17.78° C | 70% | 1005 hPa | 0 mm | 0 m/s | 0 W/m² | - |
| 1777965652 | 17.78° C | 70% | 1005.3 hPa | 0 mm | 0 m/s | 0 W/m² | - |
| 1777965347 | 17.78° C | 70% | 1005.3 hPa | 0 mm | 1.79 m/s, 210° | 0 W/m² | - |
| 1777965046 | 17.78° C | 70% | 1005.3 hPa | 0 mm | 1.79 m/s, 224° | 0 W/m² | - |
| 1777964743 | 17.78° C | 71% | 1005.3 hPa | 0 mm | 1.34 m/s, 173° | 0 W/m² | - |
| 1777964439 | 17.78° C | 71% | 1005.3 hPa | 0 mm | 0.45 m/s, 124° | 0 W/m² | - |
| 1777964134 | 17.78° C | 71% | 1005 hPa | 0 mm | 0.45 m/s, 101° | 0 W/m² | - |
| 1777963832 | 17.78° C | 70% | 1005 hPa | 0 mm | 0.89 m/s, 180° | 0 W/m² | - |
| 1777963528 | 17.78° C | 70% | 1005.3 hPa | 0 mm | 1.34 m/s, 137° | 0 W/m² | - |
| 1777963227 | 18.33° C | 70% | 1005 hPa | 0 mm | 1.34 m/s, 230° | 0 W/m² | - |
| 1777962924 | 17.78° C | 68% | 1005.3 hPa | 0 mm | 2.24 m/s, 143° | 0 W/m² | - |
| 1777962620 | 18.33° C | 67% | 1005.3 hPa | 0 mm | 1.34 m/s, 194° | 0 W/m² | - |
| 1777962316 | 18.33° C | 65% | 1005 hPa | 0 mm | 0.45 m/s, 168° | 0 W/m² | - |
| 1777962014 | 18.33° C | 65% | 1005.3 hPa | 0 mm | 1.34 m/s, 176° | 0 W/m² | - |
| 1777961711 | 18.33° C | 64% | 1005 hPa | 0 mm | 0.89 m/s, 184° | 0 W/m² | - |
* Rain latest hour (hover to see other rain measurements)
** Current wind speed in m/s (hover to see current wind gust speed)